Weather History for Livingston, MT

Change the Weather History Date:

Monday, January 13, 2014

  Actual Average Record
Temperature  
Mean Temperature 39 °F 27 °F  
Max Temperature 49 °F 37 °F 60 °F (1996)
Min Temperature 29 °F 17 °F -32 °F (1997)
Degree Days  
Heating Degree Days 26 38  
Month to date heating degree days 442 498  
Since 1 July heating degree days 3397 3663  
Moisture  
Dew Point 22 °F    
Average Humidity 57    
Maximum Humidity 85    
Minimum Humidity 29    
Precipitation  
Precipitation 0.03 in 0.02 in 0.11 in (2005)
Month to date precipitation 0.09 0.21  
Year to date precipitation 0.09 0.21  
Sea Level Pressure  
Sea Level Pressure 30.00 in    
Wind  
Wind Speed 30 mph (WSW)    
Max Wind Speed 51 mph    
Max Gust Speed 70 mph    
Visibility 8 miles    
Events Rain , Snow    
T = Trace of Precipitation, MM = Missing Value Source: NWS Daily Summary

Daily Weather History Graph

Daily Weather History Graph

Search for Another Location

Airport:

Trip Planner

Search our weather history database for the weather conditions in past years. The results will help you decide how hot, cold, wet, or windy it might be!

Date:

Astronomy

Jan. 13, 2014 Rise Set
Actual Time 7:59 AM MST 5:01 PM MST
Civil Twilight 7:26 AM MST 5:35 PM MST
Nautical Twilight 6:49 AM MST 6:12 PM MST
Astronomical Twilight 6:13 AM MST 6:47 PM MST
Moon 3:20 PM MST (1/13) 5:50 AM MST (1/13)
Length of Visible Light 10h 08m
Length of Day
9h 02m
Waxing Gibbous, 95% of the Moon is Illuminated
Jan 13
Waxing Gibbous
Jan 15
Full
Jan 23
Last Quarter
Jan 30
New
Feb 6
First Quarter

Hourly Weather History & Observations

Time (MST) Temp. Windchill Dew Point Humidity Pressure Visibility Wind Dir Wind Speed Gust Speed Precip Events Conditions
12:53 AM 39.9 °F 27.8 °F 17.1 °F 40% 29.86 in 10.0 mi West 33.4 mph 49.5 mph N/A   Overcast
1:53 AM 39.9 °F 27.6 °F 21.0 °F 47% 29.85 in 10.0 mi WSW 34.5 mph 46.0 mph 0.00 in   Overcast
2:53 AM 37.9 °F 23.9 °F 25.0 °F 60% 29.87 in 9.0 mi WSW 41.4 mph 54.1 mph 0.00 in   Overcast
3:53 AM 42.1 °F 29.3 °F 21.9 °F 45% 29.84 in 10.0 mi West 44.9 mph 70.2 mph N/A   Mostly Cloudy
4:53 AM 43.0 °F 32.5 °F 21.0 °F 42% 29.87 in 10.0 mi WSW 29.9 mph 50.6 mph N/A   Mostly Cloudy
5:53 AM 43.0 °F 33.5 °F 19.9 °F 40% 29.87 in 10.0 mi West 24.2 mph 36.8 mph N/A   Overcast
6:53 AM 44.1 °F 34.0 °F 19.9 °F 38% 29.88 in 10.0 mi SW 29.9 mph 42.6 mph N/A   Overcast
7:53 AM 45.0 °F 36.0 °F 19.9 °F 37% 29.86 in 10.0 mi WSW 25.3 mph 36.8 mph N/A   Overcast
8:53 AM 46.0 °F 36.7 °F 19.9 °F 35% 29.87 in 10.0 mi WSW 29.9 mph 36.8 mph N/A   Mostly Cloudy
9:53 AM 46.9 °F - 19.0 °F 33% 29.90 in 10.0 mi WSW 27.6 mph 35.7 mph N/A   Clear
10:53 AM 46.9 °F - 19.0 °F 33% 29.91 in 10.0 mi SW 27.6 mph 44.9 mph N/A   Overcast
11:53 AM 46.0 °F 35.9 °F 19.9 °F 35% 29.89 in 10.0 mi SW 35.7 mph 44.9 mph N/A   Overcast
12:53 PM 46.0 °F 36.4 °F 19.9 °F 35% 29.90 in 10.0 mi SW 32.2 mph 49.5 mph N/A   Overcast
1:53 PM 48.9 °F - 19.0 °F 31% 29.87 in 10.0 mi SW 27.6 mph 38.0 mph N/A   Overcast
2:53 PM 48.0 °F - 18.0 °F 30% 29.90 in 10.0 mi West 33.4 mph 42.6 mph N/A   Overcast
3:53 PM 45.0 °F 34.0 °F 21.0 °F 39% 29.93 in 10.0 mi West 39.1 mph 55.2 mph N/A   Partly Cloudy
4:53 PM 45.0 °F 35.2 °F 19.9 °F 37% 29.96 in 10.0 mi West 29.9 mph 51.8 mph N/A   Mostly Cloudy
5:53 PM 44.1 °F 32.3 °F 19.9 °F 38% 29.96 in 10.0 mi West 42.6 mph 52.9 mph N/A   Overcast
6:53 PM 43.0 °F 31.5 °F 21.0 °F 42% 30.01 in 10.0 mi West 36.8 mph 47.2 mph N/A   Overcast
7:53 PM 42.1 °F 30.3 °F 21.0 °F 43% 30.03 in 10.0 mi West 36.8 mph 44.9 mph 0.00 in Rain Light Rain
8:51 PM 33.8 °F 21.3 °F 24.8 °F 70% 30.10 in 10.0 mi NNW 24.2 mph 35.7 mph 0.00 in   Overcast
8:53 PM 34.0 °F 21.3 °F 25.0 °F 70% 30.14 in 10.0 mi NNW 25.3 mph 35.7 mph 0.00 in   Overcast
9:00 PM 33.1 °F 21.2 °F 24.1 °F 70% 30.11 in 10.0 mi NW 20.7 mph 35.7 mph N/A   Overcast
9:53 PM 30.9 °F 20.2 °F 25.0 °F 79% 30.21 in 9.0 mi NNW 15.0 mph 24.2 mph 0.00 in Snow Light Snow
10:53 PM 28.9 °F 19.8 °F 25.0 °F 85% 30.27 in 2.0 mi West 10.4 mph - 0.00 in Snow Light Snow
11:01 PM 28.9 °F 20.4 °F 25.0 °F 85% 30.22 in 1.8 mi WSW 9.2 mph - 0.01 in Snow Light Snow
11:14 PM 28.9 °F 20.4 °F 24.1 °F 82% 30.23 in 2.0 mi WSW 9.2 mph - 0.01 in Snow Light Snow
11:26 PM 28.9 °F 18.6 °F 24.1 °F 82% 30.23 in 3.0 mi WSW 12.7 mph - 0.02 in Snow Light Snow
11:35 PM 28.9 °F 18.6 °F 24.1 °F 82% 30.23 in 4.0 mi WSW 12.7 mph - 0.02 in Snow Light Snow
11:53 PM 28.9 °F 18.2 °F 23.0 °F 78% 30.29 in 5.0 mi West 13.8 mph - 0.02 in Snow Light Snow